Location: Feydey
(46.3431°N, 7.0106°E)
Time: 07:04:16
(UTC+00:00)

deb Atmosphere 2 - Pass Details

Date: 04 February 2022
Orbit: 828 x 839 km, 98.6° (Epoch: 21 May)

Event Time Altitude Azimuth Distance (km) Brightness Sun altitude
Rises 05:33:29 0° 10° (N) 3,400 ? -13.8°
Reaches altitude 10° 05:35:53 10° 6° (N) 2,460 ? -13.4°
Maximum altitude 05:41:11 54° 290° (WNW) 1,005 ? -12.5°
Drops below altitude 10° 05:46:26 10° 214° (SW) 2,435 ? -11.6°
Sets 05:48:48 0° 210° (SSW) 3,363 ? -11.2°
